User: anonymous   Login
Location: Unspecified
(0.0000°N, 0.0000°E)
Time: 20:59:48
(UTC+01:00)
Language:

Cosmos 2279 Rocket - Orbit

View from above orbital plane
View from above orbital plane
View from above satellite
View from above satellite

Ground track
Ground track

The orbit data is extracted from the following two-line orbital elements,

1 23093U 94024B   18049.78200505 +.00000092 +00000-0 +76402-4 0  9999
2 23093 082.9461 291.0776 0011003 038.7201 321.4743 13.77749626665145
Epoch (UTC): 18 February 2018 18:46:05
Eccentricity: 0.0011003
inclination: 82.9461°
perigee height: 964 km
apogee height: 980 km
right ascension of ascending node: 291.0776°
argument of perigee: 38.7201°
revolutions per day: 13.77749626
mean anomaly at epoch: 321.4743°
orbit number at epoch: 66514

The dashed part of the orbit path shows where the satellite is in the earth's shadow,  

DLR